GEFSMA_prec_meanprecacc_096.txt.gz
Total_Precipitation_Accumulation
0.05 0.04 0.03 0.03 0.04 0.06 0.06 0.05 0.05 0.06 0.08 0.09 0.10 0.11 0.13 0.13 0.14 0.12 0.10 0.09 0.08 0.08 0.13 0.26 0.46 0.66 0.82 0.97 1.09 1.02 0.99 0.87 0.61 0.46 0.45 0.54 0.59 0.64 0.64 0.69 0.67 0.55 0.51
0.02 0.02 0.02 0.02 0.02 0.02 0.02 0.02 0.01 0.01 0.01 0.03 0.04 0.06 0.09 0.10 0.11 0.13 0.13 0.14 0.12 0.10 0.11 0.17 0.28 0.53 0.74 0.87 1.05 1.20 1.11 1.09 0.96 0.69 0.53 0.51 0.55 0.60 0.63 0.67 0.71 0.67 0.57
0.01 0.01 0.01 0.01 0.01 0.01 0.01 0.01 0.01 0.00 0.00 0.01 0.01 0.01 0.03 0.05 0.07 0.08 0.11 0.15 0.17 0.15 0.14 0.15 0.17 0.33 0.59 0.80 0.95 1.20 1.29 1.19 1.21 1.09 0.84 0.64 0.58 0.57 0.60 0.64 0.68 0.73 0.66
0.00 0.01 0.01 0.01 0.01 0.01 0.01 0.01 0.00 0.00 0.00 0.00 0.00 0.00 0.00 0.01 0.02 0.03 0.05 0.10 0.18 0.21 0.19 0.18 0.18 0.21 0.40 0.65 0.89 1.11 1.52 1.44 1.34 1.40 1.34 1.02 0.74 0.64 0.63 0.65 0.68 0.74 0.76
0.00 0.01 0.01 0.01 0.00 0.01 0.01 0.01 0.01 0.00 0.00 0.00 0.01 0.00 0.00 0.00 0.01 0.02 0.03 0.05 0.09 0.17 0.23 0.23 0.22 0.19 0.25 0.44 0.70 0.97 1.44 1.79 1.61 1.51 1.55 1.46 1.12 0.84 0.72 0.70 0.73 0.77 0.81
0.00 0.00 0.00 0.00 0.00 0.00 0.00 0.00 0.01 0.01 0.01 0.01 0.01 0.00 0.00 0.00 0.00 0.01 0.02 0.04 0.05 0.09 0.17 0.24 0.26 0.20 0.17 0.23 0.42 0.77 1.15 1.61 1.86 1.74 1.67 1.69 1.55 1.23 0.97 0.83 0.80 0.87 0.88
0.00 0.00 0.00 0.00 0.00 0.00 0.00 0.00 0.01 0.01 0.01 0.01 0.02 0.01 0.00 0.00 0.00 0.00 0.00 0.01 0.03 0.05 0.09 0.19 0.27 0.26 0.21 0.19 0.21 0.36 0.71 1.23 1.72 1.95 1.96 1.90 1.85 1.64 1.33 1.09 0.96 0.98 1.02
0.00 0.00 0.00 0.00 0.00 0.00 0.01 0.01 0.01 0.02 0.02 0.03 0.06 0.10 0.04 0.00 0.00 0.00 0.00 0.00 0.01 0.02 0.06 0.11 0.21 0.27 0.27 0.21 0.15 0.18 0.32 0.70 1.25 1.76 2.05 2.13 2.09 2.02 1.72 1.41 1.17 1.11 1.17
0.00 0.00 0.00 0.00 0.00 0.00 0.01 0.01 0.02 0.05 0.07 0.04 0.07 0.23 0.29 0.15 0.05 0.00 0.00 0.00 0.01 0.01 0.03 0.07 0.14 0.22 0.29 0.29 0.22 0.18 0.20 0.37 0.78 1.35 1.84 2.14 2.25 2.32 2.17 1.76 1.45 1.27 1.27
0.00 0.00 0.00 0.00 0.00 0.00 0.01 0.03 0.04 0.06 0.11 0.12 0.09 0.13 0.23 0.27 0.29 0.13 0.01 0.01 0.01 0.02 0.02 0.03 0.07 0.14 0.22 0.30 0.32 0.30 0.27 0.28 0.50 0.86 1.40 1.95 2.31 2.55 2.67 2.26 1.76 1.48 1.39
0.00 0.00 0.00 0.00 0.00 0.01 0.02 0.03 0.05 0.08 0.13 0.19 0.18 0.17 0.14 0.13 0.18 0.28 0.12 0.02 0.03 0.03 0.03 0.03 0.05 0.09 0.15 0.24 0.31 0.33 0.36 0.35 0.46 0.68 0.99 1.55 2.11 2.62 3.05 2.88 2.18 1.67 1.44
0.00 0.00 0.00 0.00 0.00 0.01 0.02 0.04 0.07 0.10 0.14 0.17 0.20 0.21 0.24 0.25 0.19 0.25 0.21 0.07 0.03 0.02 0.03 0.03 0.04 0.08 0.13 0.20 0.25 0.33 0.37 0.40 0.44 0.55 0.69 1.07 1.63 2.17 2.87 3.15 2.63 1.96 1.53
0.00 0.00 0.00 0.00 0.00 0.01 0.03 0.06 0.10 0.12 0.13 0.18 0.21 0.22 0.23 0.24 0.24 0.28 0.29 0.17 0.08 0.02 0.02 0.03 0.05 0.08 0.12 0.17 0.22 0.27 0.29 0.34 0.41 0.49 0.52 0.62 0.98 1.59 2.32 3.10 3.27 2.53 1.88
0.01 0.00 0.00 0.00 0.01 0.02 0.04 0.08 0.11 0.12 0.15 0.19 0.20 0.23 0.24 0.20 0.22 0.27 0.33 0.37 0.29 0.09 0.03 0.02 0.04 0.07 0.11 0.16 0.20 0.24 0.23 0.27 0.33 0.39 0.41 0.44 0.54 0.88 1.53 2.47 3.40 3.43 2.65
0.01 0.01 0.01 0.01 0.01 0.03 0.06 0.09 0.11 0.14 0.18 0.21 0.23 0.25 0.28 0.25 0.25 0.26 0.29 0.41 0.58 0.41 0.11 0.02 0.04 0.06 0.10 0.15 0.20 0.21 0.22 0.23 0.26 0.31 0.36 0.38 0.42 0.55 0.85 1.45 2.39 3.37 3.52
0.01 0.01 0.01 0.02 0.03 0.06 0.09 0.11 0.13 0.15 0.20 0.24 0.28 0.31 0.33 0.35 0.35 0.33 0.34 0.36 0.45 0.53 0.31 0.05 0.04 0.08 0.13 0.17 0.22 0.20 0.22 0.25 0.24 0.26 0.29 0.32 0.36 0.46 0.64 0.94 1.51 2.38 3.21
0.01 0.01 0.03 0.06 0.08 0.11 0.13 0.14 0.17 0.22 0.25 0.27 0.32 0.39 0.43 0.46 0.50 0.48 0.46 0.42 0.40 0.45 0.43 0.11 0.03 0.06 0.14 0.20 0.21 0.21 0.23 0.22 0.19 0.20 0.23 0.27 0.32 0.40 0.54 0.74 1.05 1.61 2.40
0.01 0.02 0.06 0.12 0.15 0.18 0.18 0.19 0.22 0.32 0.44 0.44 0.42 0.44 0.46 0.50 0.56 0.58 0.59 0.53 0.43 0.37 0.41 0.26 0.07 0.05 0.11 0.21 0.27 0.26 0.25 0.23 0.20 0.20 0.23 0.26 0.30 0.37 0.47 0.63 0.83 1.14 1.73
0.01 0.02 0.08 0.19 0.25 0.30 0.30 0.28 0.31 0.37 0.52 0.65 0.68 0.68 0.63 0.58 0.60 0.60 0.63 0.61 0.51 0.41 0.38 0.35 0.19 0.09 0.11 0.21 0.33 0.36 0.32 0.28 0.24 0.23 0.24 0.26 0.28 0.33 0.39 0.49 0.65 0.86 1.14
0.02 0.04 0.09 0.19 0.29 0.41 0.53 0.55 0.58 0.55 0.58 0.67 0.74 0.79 0.80 0.82 0.78 0.73 0.71 0.66 0.62 0.57 0.49 0.46 0.33 0.20 0.17 0.23 0.39 0.47 0.41 0.34 0.31 0.28 0.28 0.27 0.29 0.31 0.33 0.34 0.40 0.56 0.81
0.02 0.05 0.06 0.11 0.21 0.48 0.88 0.91 0.82 0.74 0.62 0.54 0.54 0.57 0.67 0.83 0.92 0.97 1.01 0.91 0.85 0.88 0.79 0.69 0.57 0.42 0.33 0.36 0.47 0.53 0.59 0.51 0.43 0.38 0.35 0.29 0.27 0.25 0.25 0.28 0.34 0.43 0.59
0.02 0.04 0.04 0.06 0.14 0.42 0.84 0.91 0.70 0.52 0.38 0.36 0.37 0.36 0.39 0.56 0.67 0.78 0.93 0.96 1.01 1.16 1.19 1.07 0.85 0.66 0.46 0.42 0.49 0.63 0.75 0.80 0.67 0.45 0.45 0.42 0.36 0.33 0.27 0.23 0.26 0.31 0.41
0.02 0.04 0.03 0.03 0.06 0.26 0.65 0.75 0.53 0.31 0.21 0.20 0.21 0.22 0.23 0.32 0.43 0.48 0.58 0.68 0.78 0.95 1.15 1.23 1.15 0.84 0.60 0.47 0.59 0.73 0.77 0.81 0.71 0.60 0.64 0.70 0.60 0.50 0.38 0.34 0.35 0.32 0.36
0.02 0.03 0.03 0.02 0.03 0.12 0.50 0.67 0.49 0.24 0.15 0.14 0.16 0.15 0.12 0.17 0.31 0.43 0.53 0.56 0.56 0.68 0.96 1.20 1.33 1.14 0.89 0.75 0.82 0.95 0.99 0.96 0.87 0.83 0.85 0.99 0.88 0.72 0.59 0.49 0.42 0.36 0.37
0.01 0.02 0.02 0.02 0.02 0.04 0.32 0.66 0.58 0.26 0.15 0.12 0.14 0.16 0.12 0.10 0.25 0.40 0.44 0.41 0.37 0.45 0.61 0.88 1.08 1.10 1.05 1.05 1.12 1.33 1.44 1.37 1.29 1.14 1.05 1.13 1.15 1.03 0.90 0.79 0.62 0.48 0.42
0.02 0.02 0.01 0.01 0.01 0.02 0.17 0.58 0.72 0.34 0.17 0.13 0.12 0.13 0.18 0.21 0.30 0.35 0.33 0.33 0.38 0.37 0.37 0.44 0.54 0.63 0.73 0.81 1.01 1.28 1.42 1.43 1.43 1.48 1.23 1.12 1.29 1.34 1.42 1.18 0.85 0.56 0.46

GEFSMA_prec_meanprecacc_102.txt.gz
Total_Precipitation_Accumulation
0.05 0.04 0.03 0.04 0.05 0.06 0.06 0.05 0.05 0.06 0.08 0.10 0.10 0.11 0.13 0.13 0.14 0.12 0.10 0.09 0.08 0.08 0.13 0.27 0.46 0.66 0.83 0.98 1.11 1.03 1.01 0.88 0.63 0.48 0.47 0.55 0.60 0.66 0.66 0.70 0.69 0.56 0.52
0.03 0.02 0.02 0.02 0.02 0.02 0.02 0.02 0.01 0.01 0.01 0.03 0.04 0.06 0.09 0.10 0.11 0.13 0.13 0.14 0.12 0.10 0.11 0.17 0.28 0.53 0.75 0.89 1.07 1.22 1.13 1.12 0.98 0.71 0.55 0.53 0.57 0.63 0.65 0.70 0.73 0.69 0.58
0.01 0.01 0.02 0.02 0.01 0.01 0.01 0.01 0.01 0.00 0.00 0.01 0.01 0.01 0.03 0.05 0.07 0.08 0.11 0.15 0.17 0.15 0.14 0.15 0.18 0.34 0.59 0.81 0.96 1.22 1.31 1.21 1.24 1.12 0.87 0.67 0.61 0.60 0.63 0.67 0.71 0.76 0.69
0.01 0.01 0.01 0.01 0.01 0.01 0.01 0.01 0.01 0.00 0.00 0.00 0.00 0.00 0.00 0.01 0.02 0.03 0.05 0.10 0.18 0.21 0.19 0.18 0.18 0.21 0.40 0.65 0.90 1.12 1.53 1.45 1.36 1.41 1.36 1.04 0.77 0.67 0.66 0.69 0.72 0.78 0.80
0.00 0.01 0.01 0.01 0.01 0.01 0.01 0.01 0.01 0.01 0.01 0.01 0.01 0.00 0.00 0.00 0.01 0.02 0.03 0.05 0.09 0.17 0.23 0.23 0.22 0.19 0.25 0.44 0.70 0.98 1.45 1.79 1.62 1.51 1.56 1.48 1.14 0.86 0.74 0.73 0.77 0.81 0.86
0.00 0.01 0.01 0.01 0.01 0.01 0.01 0.01 0.01 0.01 0.01 0.01 0.01 0.00 0.00 0.00 0.00 0.01 0.02 0.04 0.05 0.09 0.17 0.24 0.26 0.20 0.17 0.23 0.42 0.77 1.15 1.61 1.86 1.75 1.68 1.70 1.56 1.25 0.99 0.85 0.84 0.91 0.93
0.00 0.00 0.00 0.00 0.00 0.01 0.01 0.00 0.01 0.01 0.01 0.01 0.02 0.01 0.00 0.00 0.00 0.00 0.00 0.01 0.03 0.05 0.09 0.19 0.27 0.26 0.21 0.19 0.21 0.36 0.72 1.23 1.72 1.95 1.97 1.90 1.86 1.65 1.34 1.10 0.98 1.01 1.07
0.00 0.00 0.00 0.00 0.00 0.00 0.01 0.01 0.01 0.02 0.03 0.03 0.06 0.10 0.04 0.00 0.00 0.00 0.00 0.00 0.01 0.02 0.06 0.11 0.21 0.27 0.27 0.21 0.15 0.18 0.32 0.70 1.25 1.76 2.05 2.13 2.10 2.02 1.73 1.42 1.19 1.13 1.20
0.00 0.00 0.00 0.00 0.00 0.00 0.01 0.01 0.02 0.05 0.07 0.04 0.08 0.23 0.30 0.15 0.05 0.00 0.00 0.00 0.01 0.01 0.03 0.07 0.14 0.22 0.29 0.29 0.22 0.18 0.20 0.37 0.78 1.35 1.84 2.14 2.26 2.33 2.18 1.78 1.47 1.29 1.29
0.00 0.00 0.00 0.00 0.00 0.00 0.01 0.03 0.04 0.06 0.11 0.12 0.09 0.13 0.23 0.27 0.29 0.13 0.01 0.01 0.01 0.02 0.02 0.03 0.07 0.14 0.22 0.30 0.32 0.30 0.27 0.28 0.50 0.86 1.40 1.95 2.31 2.56 2.69 2.28 1.78 1.51 1.42
0.00 0.00 0.00 0.00 0.00 0.01 0.02 0.03 0.05 0.08 0.13 0.19 0.18 0.17 0.14 0.13 0.18 0.28 0.12 0.02 0.03 0.03 0.03 0.03 0.05 0.09 0.15 0.24 0.31 0.33 0.36 0.35 0.46 0.68 0.99 1.56 2.11 2.63 3.07 2.90 2.22 1.70 1.48
0.00 0.00 0.00 0.00 0.00 0.01 0.02 0.04 0.07 0.10 0.14 0.17 0.20 0.21 0.24 0.25 0.19 0.25 0.22 0.07 0.03 0.02 0.03 0.03 0.04 0.08 0.13 0.20 0.25 0.33 0.37 0.40 0.44 0.55 0.70 1.07 1.64 2.18 2.89 3.17 2.65 1.98 1.56
0.00 0.00 0.00 0.00 0.00 0.01 0.03 0.06 0.10 0.12 0.13 0.18 0.21 0.22 0.23 0.24 0.24 0.28 0.29 0.17 0.08 0.02 0.02 0.03 0.05 0.08 0.12 0.17 0.22 0.27 0.29 0.34 0.41 0.49 0.52 0.62 0.98 1.60 2.32 3.11 3.28 2.56 1.91
0.01 0.00 0.00 0.00 0.01 0.02 0.04 0.08 0.11 0.12 0.15 0.19 0.20 0.23 0.24 0.20 0.22 0.27 0.33 0.37 0.29 0.09 0.03 0.02 0.04 0.07 0.11 0.16 0.20 0.24 0.23 0.27 0.33 0.39 0.42 0.44 0.55 0.89 1.53 2.48 3.41 3.44 2.67
0.01 0.01 0.01 0.01 0.01 0.03 0.06 0.09 0.11 0.14 0.18 0.21 0.23 0.25 0.28 0.25 0.25 0.26 0.29 0.41 0.58 0.41 0.11 0.02 0.04 0.06 0.10 0.15 0.20 0.21 0.22 0.23 0.26 0.31 0.37 0.39 0.43 0.56 0.86 1.46 2.41 3.38 3.54
0.01 0.01 0.01 0.02 0.03 0.06 0.09 0.11 0.13 0.15 0.20 0.24 0.28 0.31 0.33 0.35 0.35 0.33 0.34 0.36 0.45 0.53 0.31 0.05 0.04 0.08 0.13 0.17 0.22 0.20 0.22 0.25 0.24 0.26 0.29 0.33 0.37 0.47 0.66 0.95 1.53 2.40 3.23
0.01 0.01 0.03 0.06 0.08 0.11 0.13 0.14 0.17 0.22 0.25 0.27 0.32 0.39 0.43 0.46 0.50 0.48 0.46 0.42 0.40 0.45 0.43 0.11 0.03 0.06 0.14 0.20 0.21 0.21 0.23 0.22 0.19 0.20 0.23 0.28 0.33 0.41 0.56 0.76 1.07 1.63 2.43
0.01 0.02 0.06 0.12 0.15 0.18 0.18 0.19 0.22 0.32 0.44 0.44 0.42 0.44 0.46 0.50 0.56 0.58 0.59 0.53 0.43 0.37 0.41 0.26 0.07 0.06 0.11 0.21 0.27 0.26 0.25 0.23 0.20 0.20 0.23 0.27 0.31 0.39 0.50 0.65 0.86 1.17 1.76
0.01 0.02 0.08 0.19 0.25 0.30 0.30 0.28 0.31 0.37 0.52 0.65 0.68 0.68 0.63 0.58 0.60 0.60 0.63 0.61 0.51 0.42 0.38 0.36 0.19 0.10 0.12 0.21 0.33 0.36 0.32 0.28 0.24 0.23 0.24 0.27 0.29 0.34 0.41 0.52 0.69 0.90 1.18
0.02 0.04 0.09 0.19 0.29 0.41 0.53 0.55 0.58 0.55 0.58 0.67 0.74 0.79 0.80 0.83 0.78 0.73 0.71 0.67 0.62 0.58 0.50 0.47 0.35 0.22 0.18 0.23 0.39 0.47 0.42 0.34 0.31 0.28 0.28 0.27 0.29 0.32 0.34 0.36 0.41 0.58 0.83
0.02 0.05 0.06 0.11 0.21 0.48 0.88 0.91 0.82 0.74 0.62 0.54 0.54 0.57 0.67 0.83 0.92 0.97 1.01 0.91 0.86 0.89 0.80 0.71 0.58 0.44 0.34 0.37 0.48 0.54 0.60 0.52 0.43 0.38 0.35 0.29 0.27 0.25 0.25 0.28 0.34 0.43 0.59
0.02 0.04 0.04 0.06 0.14 0.42 0.84 0.91 0.70 0.52 0.38 0.36 0.37 0.36 0.39 0.56 0.67 0.79 0.94 0.97 1.03 1.17 1.21 1.09 0.88 0.69 0.48 0.44 0.50 0.65 0.77 0.82 0.69 0.45 0.45 0.42 0.37 0.33 0.27 0.23 0.26 0.31 0.42
0.02 0.04 0.03 0.03 0.06 0.26 0.65 0.75 0.53 0.31 0.21 0.20 0.21 0.22 0.23 0.32 0.43 0.48 0.58 0.68 0.79 0.95 1.17 1.26 1.19 0.87 0.61 0.48 0.60 0.75 0.79 0.85 0.75 0.61 0.65 0.72 0.61 0.50 0.38 0.34 0.35 0.33 0.37
0.02 0.03 0.03 0.02 0.03 0.12 0.50 0.67 0.49 0.24 0.15 0.14 0.16 0.15 0.12 0.17 0.31 0.43 0.54 0.56 0.57 0.69 0.97 1.21 1.34 1.15 0.90 0.76 0.85 1.01 1.07 1.04 0.92 0.85 0.87 1.02 0.89 0.72 0.59 0.49 0.42 0.36 0.38
0.01 0.02 0.02 0.02 0.02 0.04 0.32 0.66 0.58 0.26 0.15 0.12 0.14 0.16 0.12 0.10 0.25 0.41 0.45 0.42 0.38 0.46 0.61 0.90 1.10 1.13 1.08 1.10 1.17 1.39 1.52 1.46 1.35 1.16 1.06 1.14 1.16 1.04 0.90 0.79 0.62 0.48 0.43
0.02 0.02 0.01 0.01 0.01 0.02 0.17 0.58 0.73 0.34 0.17 0.13 0.12 0.13 0.18 0.22 0.31 0.37 0.35 0.35 0.41 0.38 0.38 0.45 0.55 0.65 0.74 0.82 1.02 1.30 1.46 1.50 1.49 1.51 1.24 1.13 1.30 1.36 1.45 1.18 0.85 0.56 0.46

GEFSMA_prec_meanprecacc_108.txt.gz
Total_Precipitation_Accumulation
0.06 0.05 0.04 0.04 0.05 0.06 0.06 0.05 0.05 0.06 0.08 0.10 0.10 0.11 0.13 0.13 0.14 0.12 0.10 0.09 0.08 0.08 0.13 0.27 0.47 0.67 0.84 1.00 1.12 1.05 1.03 0.90 0.65 0.50 0.49 0.58 0.63 0.68 0.68 0.73 0.71 0.59 0.54
0.03 0.03 0.03 0.02 0.02 0.03 0.02 0.02 0.02 0.01 0.02 0.03 0.04 0.06 0.09 0.10 0.11 0.13 0.13 0.14 0.12 0.10 0.11 0.17 0.28 0.54 0.75 0.89 1.08 1.23 1.14 1.13 1.00 0.73 0.57 0.55 0.59 0.64 0.67 0.72 0.75 0.72 0.61
0.02 0.02 0.02 0.02 0.02 0.01 0.01 0.01 0.01 0.01 0.00 0.01 0.01 0.01 0.03 0.05 0.07 0.08 0.11 0.15 0.17 0.15 0.14 0.15 0.18 0.34 0.60 0.81 0.97 1.23 1.32 1.22 1.24 1.13 0.88 0.68 0.62 0.61 0.65 0.69 0.73 0.79 0.72
0.01 0.02 0.02 0.02 0.01 0.01 0.01 0.01 0.01 0.01 0.01 0.00 0.00 0.00 0.00 0.01 0.02 0.03 0.05 0.10 0.18 0.21 0.19 0.18 0.18 0.21 0.40 0.65 0.90 1.12 1.54 1.45 1.36 1.42 1.36 1.04 0.78 0.68 0.67 0.70 0.74 0.80 0.83
0.01 0.01 0.01 0.01 0.01 0.01 0.02 0.02 0.01 0.01 0.01 0.01 0.01 0.00 0.00 0.00 0.01 0.02 0.03 0.05 0.09 0.17 0.23 0.23 0.22 0.19 0.25 0.44 0.70 0.98 1.45 1.80 1.62 1.52 1.56 1.48 1.15 0.87 0.75 0.74 0.78 0.83 0.88
0.01 0.01 0.01 0.01 0.01 0.01 0.01 0.01 0.01 0.01 0.01 0.01 0.01 0.00 0.00 0.00 0.00 0.01 0.02 0.04 0.05 0.09 0.17 0.24 0.26 0.20 0.17 0.23 0.42 0.77 1.16 1.61 1.86 1.75 1.68 1.70 1.56 1.25 0.99 0.86 0.84 0.92 0.94
0.01 0.01 0.01 0.01 0.00 0.01 0.01 0.01 0.01 0.01 0.01 0.02 0.02 0.01 0.00 0.00 0.00 0.00 0.00 0.01 0.03 0.05 0.09 0.19 0.27 0.26 0.21 0.19 0.21 0.36 0.72 1.23 1.72 1.95 1.97 1.90 1.86 1.65 1.35 1.11 0.98 1.02 1.07
0.00 0.00 0.00 0.00 0.00 0.01 0.01 0.01 0.01 0.02 0.03 0.03 0.06 0.10 0.04 0.00 0.00 0.00 0.00 0.00 0.01 0.02 0.06 0.11 0.21 0.27 0.27 0.21 0.15 0.18 0.32 0.70 1.25 1.76 2.05 2.13 2.10 2.03 1.73 1.43 1.20 1.14 1.22
0.00 0.00 0.00 0.00 0.00 0.00 0.01 0.01 0.02 0.05 0.07 0.04 0.08 0.23 0.30 0.15 0.05 0.00 0.00 0.00 0.01 0.01 0.03 0.07 0.14 0.22 0.29 0.29 0.22 0.18 0.20 0.37 0.78 1.35 1.84 2.14 2.26 2.33 2.18 1.79 1.48 1.30 1.31
0.00 0.00 0.00 0.00 0.00 0.00 0.01 0.03 0.04 0.06 0.11 0.12 0.09 0.13 0.23 0.27 0.29 0.13 0.01 0.01 0.01 0.02 0.02 0.03 0.07 0.14 0.22 0.30 0.32 0.30 0.27 0.28 0.50 0.87 1.40 1.96 2.32 2.57 2.70 2.30 1.80 1.53 1.45
0.00 0.00 0.00 0.00 0.00 0.01 0.02 0.03 0.05 0.08 0.13 0.19 0.18 0.17 0.14 0.13 0.18 0.28 0.12 0.02 0.03 0.03 0.03 0.03 0.05 0.09 0.15 0.24 0.31 0.33 0.36 0.35 0.46 0.68 0.99 1.56 2.12 2.64 3.08 2.92 2.24 1.73 1.50
0.00 0.00 0.00 0.00 0.00 0.01 0.02 0.04 0.07 0.10 0.14 0.17 0.20 0.21 0.24 0.25 0.19 0.25 0.22 0.07 0.03 0.02 0.03 0.03 0.04 0.08 0.13 0.20 0.25 0.33 0.37 0.40 0.44 0.55 0.70 1.08 1.64 2.18 2.90 3.19 2.67 2.00 1.58
0.00 0.00 0.00 0.00 0.00 0.01 0.03 0.06 0.10 0.12 0.13 0.18 0.21 0.22 0.23 0.24 0.24 0.28 0.29 0.17 0.08 0.02 0.02 0.03 0.05 0.08 0.12 0.17 0.22 0.27 0.29 0.34 0.41 0.49 0.52 0.62 0.99 1.60 2.33 3.12 3.30 2.57 1.93
0.01 0.00 0.00 0.00 0.01 0.02 0.04 0.08 0.11 0.12 0.15 0.19 0.20 0.23 0.24 0.20 0.22 0.27 0.33 0.38 0.29 0.09 0.03 0.02 0.04 0.07 0.11 0.16 0.20 0.24 0.23 0.27 0.33 0.39 0.42 0.45 0.55 0.89 1.54 2.49 3.42 3.46 2.69
0.01 0.01 0.01 0.01 0.01 0.03 0.06 0.09 0.11 0.14 0.18 0.21 0.23 0.25 0.28 0.25 0.25 0.26 0.29 0.41 0.58 0.41 0.11 0.02 0.04 0.06 0.10 0.15 0.20 0.21 0.22 0.23 0.26 0.32 0.37 0.39 0.43 0.57 0.87 1.47 2.42 3.40 3.56
0.01 0.01 0.01 0.02 0.03 0.06 0.09 0.11 0.13 0.15 0.20 0.24 0.28 0.31 0.33 0.35 0.35 0.33 0.34 0.36 0.45 0.54 0.31 0.05 0.04 0.08 0.13 0.17 0.22 0.20 0.22 0.25 0.24 0.26 0.29 0.33 0.38 0.48 0.67 0.97 1.55 2.43 3.26
0.01 0.01 0.03 0.06 0.08 0.11 0.13 0.14 0.17 0.22 0.25 0.27 0.32 0.39 0.43 0.46 0.50 0.48 0.46 0.42 0.40 0.45 0.43 0.11 0.03 0.06 0.14 0.20 0.21 0.21 0.23 0.22 0.19 0.20 0.23 0.28 0.34 0.43 0.57 0.78 1.09 1.66 2.46
0.01 0.02 0.06 0.12 0.15 0.18 0.18 0.19 0.22 0.32 0.44 0.44 0.42 0.44 0.46 0.50 0.56 0.58 0.59 0.53 0.43 0.37 0.41 0.26 0.07 0.06 0.11 0.21 0.27 0.26 0.25 0.23 0.20 0.20 0.23 0.27 0.32 0.40 0.51 0.67 0.88 1.20 1.79
0.01 0.02 0.08 0.19 0.25 0.30 0.30 0.28 0.31 0.37 0.52 0.65 0.68 0.68 0.63 0.58 0.60 0.60 0.63 0.61 0.51 0.42 0.38 0.36 0.20 0.10 0.12 0.21 0.33 0.36 0.32 0.28 0.24 0.23 0.24 0.27 0.29 0.34 0.42 0.54 0.71 0.93 1.21
0.02 0.04 0.09 0.19 0.29 0.41 0.53 0.55 0.58 0.55 0.58 0.67 0.74 0.79 0.80 0.83 0.78 0.73 0.71 0.67 0.62 0.58 0.51 0.48 0.36 0.22 0.19 0.23 0.40 0.48 0.42 0.34 0.31 0.28 0.28 0.27 0.29 0.32 0.35 0.37 0.43 0.59 0.85
0.02 0.05 0.06 0.11 0.21 0.48 0.88 0.91 0.82 0.74 0.62 0.54 0.54 0.57 0.67 0.83 0.92 0.97 1.01 0.92 0.87 0.90 0.82 0.73 0.60 0.45 0.35 0.38 0.49 0.55 0.61 0.52 0.44 0.38 0.36 0.29 0.28 0.25 0.25 0.28 0.34 0.44 0.59
0.02 0.04 0.04 0.06 0.14 0.42 0.84 0.91 0.70 0.52 0.38 0.36 0.37 0.36 0.39 0.56 0.67 0.79 0.94 0.98 1.04 1.18 1.23 1.12 0.91 0.72 0.50 0.45 0.52 0.66 0.79 0.84 0.70 0.45 0.46 0.42 0.37 0.34 0.27 0.24 0.26 0.31 0.43
0.02 0.04 0.03 0.03 0.06 0.26 0.65 0.75 0.53 0.31 0.21 0.20 0.21 0.22 0.23 0.32 0.43 0.48 0.58 0.68 0.79 0.96 1.18 1.28 1.22 0.89 0.63 0.49 0.62 0.78 0.82 0.88 0.77 0.63 0.67 0.74 0.61 0.51 0.39 0.34 0.35 0.33 0.38
0.02 0.03 0.03 0.02 0.03 0.12 0.50 0.67 0.49 0.24 0.15 0.14 0.16 0.15 0.12 0.17 0.31 0.44 0.54 0.57 0.57 0.69 0.97 1.22 1.35 1.16 0.92 0.78 0.88 1.07 1.14 1.11 0.96 0.86 0.89 1.04 0.90 0.72 0.59 0.49 0.42 0.37 0.39
0.02 0.02 0.02 0.02 0.02 0.04 0.32 0.66 0.58 0.26 0.15 0.12 0.14 0.16 0.12 0.11 0.25 0.42 0.47 0.44 0.39 0.46 0.62 0.91 1.12 1.16 1.12 1.14 1.22 1.45 1.58 1.51 1.38 1.17 1.06 1.15 1.16 1.04 0.90 0.79 0.62 0.49 0.43
0.02 0.02 0.01 0.01 0.01 0.02 0.17 0.58 0.73 0.34 0.17 0.13 0.12 0.13 0.18 0.22 0.32 0.39 0.37 0.38 0.44 0.40 0.40 0.47 0.57 0.66 0.76 0.83 1.04 1.32 1.49 1.53 1.51 1.52 1.24 1.14 1.31 1.38 1.47 1.19 0.85 0.56 0.47

GEFSMA_prec_meanprecacc_114.txt.gz
Total_Precipitation_Accumulation
0.07 0.06 0.04 0.04 0.05 0.06 0.07 0.06 0.06 0.06 0.08 0.10 0.11 0.11 0.13 0.14 0.14 0.12 0.10 0.09 0.08 0.08 0.13 0.27 0.47 0.67 0.84 1.00 1.13 1.06 1.04 0.91 0.66 0.52 0.50 0.59 0.65 0.70 0.70 0.74 0.73 0.61 0.57
0.04 0.03 0.03 0.03 0.03 0.03 0.03 0.02 0.02 0.02 0.02 0.03 0.04 0.06 0.09 0.10 0.12 0.13 0.13 0.14 0.12 0.10 0.11 0.17 0.28 0.54 0.75 0.90 1.08 1.24 1.15 1.14 1.01 0.74 0.58 0.56 0.60 0.65 0.69 0.73 0.77 0.74 0.63
0.02 0.03 0.03 0.03 0.02 0.02 0.02 0.01 0.01 0.01 0.01 0.01 0.01 0.01 0.03 0.05 0.07 0.08 0.11 0.15 0.17 0.15 0.14 0.15 0.18 0.34 0.60 0.81 0.97 1.23 1.32 1.22 1.25 1.13 0.88 0.68 0.62 0.62 0.65 0.70 0.74 0.80 0.73
0.02 0.02 0.03 0.03 0.02 0.02 0.02 0.01 0.01 0.01 0.01 0.01 0.01 0.00 0.00 0.01 0.02 0.03 0.05 0.10 0.18 0.21 0.19 0.18 0.18 0.21 0.40 0.65 0.90 1.12 1.54 1.46 1.36 1.42 1.36 1.05 0.78 0.68 0.68 0.71 0.74 0.81 0.84
0.01 0.02 0.02 0.02 0.02 0.02 0.02 0.02 0.02 0.01 0.01 0.01 0.01 0.00 0.00 0.00 0.01 0.02 0.03 0.05 0.09 0.17 0.23 0.23 0.22 0.19 0.25 0.44 0.70 0.98 1.45 1.80 1.62 1.52 1.56 1.48 1.15 0.87 0.76 0.75 0.79 0.83 0.89
0.01 0.01 0.01 0.01 0.01 0.02 0.02 0.01 0.01 0.01 0.01 0.01 0.01 0.00 0.00 0.00 0.00 0.01 0.02 0.04 0.05 0.09 0.17 0.24 0.26 0.20 0.17 0.23 0.42 0.77 1.16 1.61 1.86 1.75 1.68 1.70 1.56 1.25 1.00 0.86 0.85 0.93 0.94
0.01 0.01 0.01 0.01 0.01 0.01 0.01 0.01 0.01 0.01 0.01 0.02 0.02 0.01 0.00 0.00 0.00 0.00 0.00 0.01 0.03 0.05 0.09 0.19 0.27 0.26 0.21 0.19 0.21 0.36 0.72 1.23 1.72 1.95 1.97 1.90 1.86 1.65 1.35 1.12 0.99 1.03 1.09
0.00 0.00 0.00 0.00 0.00 0.01 0.01 0.01 0.01 0.03 0.03 0.03 0.06 0.10 0.04 0.01 0.00 0.00 0.00 0.00 0.01 0.02 0.06 0.11 0.21 0.27 0.27 0.21 0.15 0.18 0.32 0.70 1.25 1.76 2.05 2.14 2.10 2.03 1.74 1.44 1.21 1.16 1.23
0.00 0.00 0.00 0.00 0.00 0.00 0.01 0.01 0.02 0.05 0.07 0.04 0.08 0.23 0.30 0.15 0.05 0.00 0.00 0.00 0.01 0.01 0.03 0.07 0.14 0.22 0.29 0.29 0.22 0.18 0.20 0.37 0.78 1.35 1.84 2.15 2.27 2.34 2.20 1.80 1.49 1.32 1.33
0.00 0.00 0.00 0.00 0.00 0.00 0.01 0.03 0.04 0.06 0.12 0.12 0.09 0.13 0.23 0.27 0.29 0.13 0.01 0.01 0.01 0.02 0.02 0.03 0.07 0.14 0.22 0.30 0.32 0.30 0.27 0.28 0.50 0.87 1.40 1.96 2.33 2.58 2.71 2.32 1.82 1.55 1.47
0.00 0.00 0.00 0.00 0.00 0.01 0.02 0.03 0.05 0.08 0.14 0.19 0.18 0.17 0.14 0.13 0.18 0.28 0.12 0.02 0.03 0.03 0.03 0.03 0.05 0.09 0.15 0.24 0.31 0.33 0.36 0.35 0.46 0.68 1.00 1.56 2.12 2.65 3.09 2.94 2.25 1.74 1.52
0.00 0.00 0.00 0.00 0.00 0.01 0.02 0.04 0.07 0.10 0.14 0.17 0.20 0.21 0.24 0.25 0.19 0.25 0.22 0.07 0.03 0.02 0.03 0.03 0.04 0.08 0.13 0.20 0.25 0.33 0.37 0.40 0.44 0.55 0.70 1.08 1.65 2.19 2.91 3.20 2.68 2.01 1.59
0.00 0.00 0.00 0.00 0.00 0.01 0.03 0.06 0.10 0.12 0.13 0.18 0.21 0.22 0.23 0.24 0.24 0.28 0.29 0.17 0.08 0.02 0.02 0.03 0.05 0.08 0.12 0.17 0.22 0.27 0.29 0.34 0.41 0.49 0.52 0.63 0.99 1.61 2.34 3.13 3.31 2.58 1.95
0.01 0.00 0.00 0.00 0.01 0.02 0.04 0.08 0.11 0.12 0.15 0.19 0.20 0.23 0.24 0.20 0.22 0.27 0.33 0.38 0.29 0.09 0.03 0.02 0.04 0.07 0.11 0.16 0.20 0.24 0.23 0.27 0.33 0.39 0.42 0.45 0.56 0.90 1.55 2.50 3.43 3.47 2.70
0.01 0.01 0.01 0.01 0.01 0.03 0.06 0.09 0.11 0.14 0.18 0.21 0.23 0.25 0.28 0.25 0.25 0.26 0.29 0.41 0.58 0.41 0.11 0.02 0.04 0.06 0.10 0.15 0.20 0.21 0.22 0.23 0.26 0.32 0.37 0.39 0.44 0.57 0.88 1.48 2.43 3.42 3.57
0.01 0.01 0.01 0.02 0.03 0.06 0.09 0.11 0.13 0.15 0.20 0.24 0.28 0.31 0.33 0.35 0.35 0.33 0.34 0.36 0.45 0.54 0.31 0.05 0.04 0.08 0.13 0.17 0.22 0.20 0.22 0.25 0.24 0.26 0.29 0.34 0.38 0.49 0.68 0.98 1.56 2.44 3.27
0.01 0.01 0.03 0.06 0.08 0.11 0.13 0.14 0.17 0.22 0.25 0.27 0.32 0.39 0.43 0.46 0.50 0.48 0.46 0.42 0.40 0.45 0.43 0.11 0.03 0.06 0.14 0.20 0.21 0.21 0.23 0.22 0.19 0.20 0.24 0.28 0.34 0.43 0.58 0.79 1.11 1.68 2.48
0.01 0.02 0.06 0.12 0.15 0.18 0.18 0.19 0.22 0.32 0.44 0.44 0.42 0.44 0.46 0.50 0.56 0.58 0.59 0.53 0.43 0.37 0.41 0.26 0.07 0.06 0.11 0.21 0.27 0.26 0.25 0.23 0.20 0.20 0.23 0.28 0.33 0.41 0.52 0.68 0.90 1.21 1.81
0.01 0.02 0.08 0.19 0.25 0.30 0.30 0.28 0.31 0.37 0.52 0.65 0.68 0.68 0.63 0.58 0.60 0.60 0.63 0.61 0.51 0.42 0.38 0.36 0.20 0.10 0.12 0.21 0.33 0.36 0.32 0.28 0.24 0.23 0.24 0.27 0.29 0.35 0.43 0.55 0.72 0.94 1.23
0.02 0.04 0.09 0.19 0.29 0.41 0.53 0.55 0.58 0.55 0.58 0.67 0.74 0.79 0.80 0.83 0.78 0.73 0.71 0.67 0.62 0.58 0.51 0.48 0.36 0.23 0.19 0.24 0.40 0.48 0.42 0.35 0.31 0.28 0.28 0.27 0.29 0.33 0.35 0.37 0.43 0.60 0.85
0.02 0.05 0.06 0.11 0.21 0.48 0.88 0.91 0.82 0.74 0.62 0.54 0.54 0.57 0.67 0.83 0.92 0.97 1.01 0.92 0.87 0.90 0.82 0.74 0.61 0.46 0.36 0.39 0.50 0.56 0.62 0.53 0.44 0.38 0.36 0.29 0.28 0.25 0.25 0.28 0.35 0.44 0.60
0.02 0.04 0.04 0.06 0.14 0.42 0.84 0.91 0.70 0.52 0.38 0.36 0.37 0.36 0.39 0.56 0.67 0.79 0.94 0.98 1.04 1.19 1.24 1.13 0.92 0.74 0.51 0.46 0.53 0.68 0.80 0.85 0.71 0.46 0.46 0.43 0.37 0.34 0.27 0.24 0.26 0.32 0.44
0.02 0.04 0.03 0.03 0.06 0.26 0.65 0.75 0.53 0.31 0.21 0.20 0.21 0.22 0.23 0.32 0.43 0.48 0.58 0.68 0.79 0.96 1.19 1.29 1.24 0.91 0.64 0.50 0.63 0.79 0.84 0.90 0.80 0.64 0.69 0.75 0.62 0.51 0.39 0.34 0.35 0.34 0.40
0.02 0.03 0.03 0.02 0.03 0.12 0.50 0.67 0.49 0.24 0.15 0.14 0.16 0.15 0.12 0.17 0.31 0.44 0.54 0.57 0.58 0.70 0.98 1.23 1.36 1.17 0.93 0.79 0.90 1.09 1.18 1.15 0.99 0.87 0.90 1.06 0.90 0.73 0.60 0.50 0.43 0.38 0.40
0.02 0.02 0.02 0.02 0.02 0.04 0.32 0.66 0.58 0.26 0.15 0.12 0.14 0.16 0.12 0.11 0.25 0.43 0.47 0.44 0.40 0.47 0.63 0.92 1.14 1.18 1.14 1.17 1.26 1.50 1.63 1.57 1.42 1.18 1.07 1.17 1.17 1.04 0.90 0.79 0.63 0.49 0.44
0.02 0.02 0.02 0.01 0.01 0.02 0.17 0.58 0.73 0.34 0.17 0.13 0.12 0.13 0.18 0.22 0.32 0.40 0.38 0.39 0.45 0.41 0.41 0.48 0.58 0.68 0.77 0.84 1.05 1.34 1.51 1.56 1.55 1.55 1.25 1.15 1.32 1.39 1.48 1.19 0.85 0.56 0.47